Location: Peebles
(55.6412°N, 3.1714°W)
Time: 22:07:28
(UTC+00:00)

deb Agena D - Pass Details

Date: 28 September 2023
Orbit: 794 x 979 km, 99.8° (Epoch: 28 November)

Event Time Altitude Azimuth Distance (km) Brightness Sun altitude
Rises 01:03:09 0° 19° (NNE) 3,696 10.4 -36.2°
Reaches altitude 10° 01:05:42 10° 23° (NNE) 2,740 9.5 -36.2°
Enters shadow 01:09:39 39° 44° (NE) 1,430 7.5 -36.2°
